Weather History for McKinney, TX

Change the Weather History Date:

Wednesday, November 7, 2012

  Actual Average (KADS) Record (KADS)
Temperature  
Mean Temperature 57 °F -  
Max Temperature 73 °F 65 °F 84 °F (2005)
Min Temperature 41 °F 50 °F 39 °F (1997)
Degree Days  
Heating Degree Days 8    
Growing Degree Days 7 (Base 50)    
Moisture  
Dew Point 35 °F    
Average Humidity 51    
Maximum Humidity 86    
Minimum Humidity 20    
Precipitation  
Precipitation 0.00 in - - ()
Sea Level Pressure  
Sea Level Pressure 30.15 in    
Wind  
Wind Speed 2 mph (East)    
Max Wind Speed 6 mph    
Max Gust Speed -    
Visibility 10 miles    
Events      
Averages and records for this station are not official NWS values.
T = Trace of Precipitation, MM = Missing Value Source: NWS Daily Summary

Daily Weather History Graph

Daily Weather History Graph

Search for Another Location

Airport:

Trip Planner

Search our weather history database for the weather conditions in past years. The results will help you decide how hot, cold, wet, or windy it might be!

Date:

Astronomy

Nov. 07, 2012 Rise Set
Actual Time 6:50 AM CST 5:29 PM CST
Civil Twilight 6:24 AM CST 5:55 PM CST
Nautical Twilight 5:54 AM CST 6:24 PM CST
Astronomical Twilight 5:25 AM CST 6:53 PM CST
Moon 12:06 AM CST (11/7) 1:20 PM CST (11/7)
Length of Visible Light 11h 30m
Length of Day
10h 38m
Last Quarter, 43% of the Moon is Illuminated
Nov 7
Last Quarter
Nov 13
New
Nov 20
First Quarter
Nov 28
Full
Dec 6
Last Quarter

Hourly Weather History & Observations

Time (CST) Temp. Windchill Dew Point Humidity Pressure Visibility Wind Dir Wind Speed Gust Speed Precip Events Conditions
12:53 AM 48.0 °F - 39.9 °F 74% 30.16 in 10.0 mi NNW 3.5 mph - N/A   Clear
1:53 AM 46.0 °F - 39.0 °F 76% 30.16 in 10.0 mi Calm Calm - N/A   Clear
2:53 AM 48.0 °F - 39.0 °F 71% 30.15 in 10.0 mi Calm Calm - N/A   Clear
3:53 AM 43.0 °F 41.3 °F 37.9 °F 82% 30.15 in 10.0 mi NNE 3.5 mph - N/A   Clear
4:53 AM 43.0 °F - 37.0 °F 80% 30.16 in 10.0 mi Calm Calm - N/A   Clear
5:53 AM 41.0 °F 39.0 °F 37.0 °F 86% 30.18 in 10.0 mi North 3.5 mph - N/A   Clear
6:53 AM 42.1 °F - 37.0 °F 82% 30.20 in 10.0 mi Calm Calm - N/A   Clear
7:53 AM 46.0 °F 44.8 °F 39.0 °F 76% 30.22 in 10.0 mi North 3.5 mph - N/A   Clear
8:53 AM 55.9 °F - 39.9 °F 55% 30.23 in 10.0 mi North 4.6 mph - N/A   Clear
9:53 AM 64.0 °F - 36.0 °F 35% 30.22 in 10.0 mi Calm Calm - N/A   Clear
10:53 AM 68.0 °F - 28.9 °F 23% 30.20 in 10.0 mi Calm Calm - N/A   Clear
11:53 AM 68.0 °F - 28.0 °F 22% 30.18 in 10.0 mi Calm Calm - N/A   Clear
12:53 PM 70.0 °F - 28.9 °F 22% 30.15 in 10.0 mi South 3.5 mph - N/A   Clear
1:53 PM 71.1 °F - 28.9 °F 21% 30.12 in 10.0 mi Calm Calm - N/A   Clear
2:53 PM 73.9 °F - 30.0 °F 20% 30.11 in 10.0 mi Calm Calm - N/A   Clear
3:53 PM 72.0 °F - 30.9 °F 22% 30.10 in 10.0 mi SSE 5.8 mph - N/A   Clear
5:53 PM 63.0 °F - 34.0 °F 34% 30.12 in 10.0 mi SSE 4.6 mph - N/A   Clear
6:53 PM 62.1 °F - 34.0 °F 35% 30.12 in 10.0 mi SE 5.8 mph - N/A   Clear
7:53 PM 57.9 °F - 35.1 °F 42% 30.12 in 10.0 mi Calm Calm - N/A   Clear
8:53 PM 54.0 °F - 37.0 °F 53% 30.13 in 10.0 mi Calm Calm - N/A   Clear
9:53 PM 55.0 °F - 37.9 °F 53% 30.12 in 10.0 mi SE 3.5 mph - N/A   Clear
10:53 PM 52.0 °F - 37.9 °F 59% 30.11 in 10.0 mi Calm Calm - N/A   Clear
11:53 PM 52.0 °F - 37.0 °F 57% 30.10 in 10.0 mi SE 4.6 mph - N/A   Clear